SVYATOBOR 1 (RS60S)

Last updated on Tue Dec 03 2024 00:03:03 GMT+0000 (Coordinated Universal Time)

1 57187U 23091X 24337.55814164 .00015363 00000+0 84751-3 0 9991 2 57187 97.5919 29.4815 0011170 248.6941 111.3098 15.14002816 78964
UTC large
Height (km)
Speed (km/s)
/
Latitude / Longitude
Inclination (degrees)
Orbital Period (minutes)
Azimuth
Elevation
Range (km)
Doppler Factor

Next 0 passes for location: London (51.5072 / 0.1276)

Sorry there are no passes over London.